Home > Time Zones > World Clock > Weather > China > Wuhan > Past weeks

Flag for China Weather past 2 weeks in Wuhan, Hubei, China

Now
68 °F

Haze.


Feels Like: 68 °F
Forecast: 68 / 79 °F
Wind: 1 mph from North

Location: Wuhan Airport

Current Time: May 23, 2015 at 12:14:47 AM

Latest Report: May 22, 2015 at 11:00 PM


Visibility: 3 mi

Pressure: 29.83 "Hg

Humidity: 73%

Dew point: 59 °F

Location of WuhanLocation

Historic Weather in Wuhan — Graph

°F

Wuhan temperature yesterday

Maximum temperature yesterday: 81 °F (at 12:00 PM)
Minimum temperature yesterday: 66 °F (at 5:00 AM)
Average temperature yesterday: 72 °F

Past Weeks' High & Low Weather Summary

 TemperatureHumidityPressure
High86 °F (May 13, 1:00 PM)100% (May 8, 7:00 AM)30.04 "Hg (May 8, 7:00 AM)
Low55 °F (May 11, 7:00 AM)34% (May 20, 6:00 PM)29.59 "Hg (May 18, 5:00 AM)
Average74 °F73%29.79 "Hg
* Reported May 7 11:00 PM — May 22 11:00 PM, Wuhan, Weather by CustomWeather, © 2015

Note: Actual official high and low records may vary slightly from our data, if they occured in-between our weather recording intervals... More about our weather records

Advertising

Wuhan weather history for previous 24 hours

 ConditionsComfort  
Time TempWeatherWind HumidityBarometerVisibility
11:00 PM
Fri, May 22
68 °FHaze.1 mph73%29.83 "Hg3 mi
10:00 PM68 °FClear.No wind73%29.83 "Hg5 mi
9:00 PM68 °FClear.No wind73%29.83 "Hg4 mi
8:00 PM68 °FClear.No wind73%29.80 "Hg4 mi
7:00 PM70 °FClear.3 mph69%29.80 "Hg4 mi
6:00 PM73 °FPassing clouds.10 mph53%29.80 "HgN/A
5:00 PM77 °FPassing clouds.6 mph47%29.80 "HgN/A
4:00 PM77 °FPassing clouds.10 mph51%29.80 "HgN/A
3:00 PM81 °FPassing clouds.6 mph48%29.80 "HgN/A
2:00 PM81 °FPassing clouds.6 mph42%29.83 "HgN/A
1:00 PM81 °FPassing clouds.6 mph39%29.83 "HgN/A
12:00 PM81 °FPassing clouds.3 mph48%29.86 "HgN/A
11:00 AM79 °FPassing clouds.6 mph45%29.86 "HgN/A
10:00 AM77 °FPassing clouds.6 mph54%29.89 "HgN/A
9:00 AM73 °FPassing clouds.3 mph61%29.89 "HgN/A
8:00 AM72 °FPassing clouds.6 mph65%29.89 "HgN/A
7:00 AM68 °FSunny.1 mph69%29.86 "Hg10 mi
6:00 AM66 °FSunny.No wind73%29.86 "Hg10 mi
5:00 AM66 °FClear.1 mph73%29.86 "Hg10 mi
4:00 AM68 °FPassing clouds.3 mph64%29.86 "HgN/A
3:00 AM68 °FClear.6 mph64%29.86 "Hg10 mi
2:00 AM70 °FClear.8 mph60%29.86 "Hg10 mi
1:00 AM70 °FClear.6 mph64%29.86 "Hg10 mi
12:00 AM72 °FClear.6 mph61%29.89 "Hg10 mi
Weather by CustomWeather, © 2015

See weather overviewHow to use our weather pages